"Time","Temp","Dewpoint","Humidity","Pressure","Direction","Speed","Gust","Precip","PrecipRate"
"00:04:57","57.9","56.8","96","30.11","360","0.4","3.6","0.00","0.02"
"00:09:56","57.9","56.8","96","30.11","360","0.8","4.8","0.01","0.03"
"00:14:57","57.8","56.7","96","30.12","360","0.6","3.6","0.01","0.02"
"00:19:57","57.8","56.7","96","30.12","349","1.1","7.2","0.01","0.02"
"00:24:57","57.8","56.7","96","30.12","305","1.4","6","0.01","0.02"
"00:29:57","57.8","56.7","96","30.12","340","0.8","4.8","0.01","0.02"
"00:34:57","57.7","56.6","96","30.11","340","1","4.8","0.01","0.02"
"00:39:59","57.7","56.6","96","30.11","351","0.8","8.4","0.01","0.02"
"00:44:59","57.7","56.6","96","30.11","344","0.6","8.1","0.01","0.01"
"00:49:59","57.7","56.6","96","30.11","340","1.2","6","0.01","0.01"
"00:54:59","57.7","56.6","96","30.11","332","1.5","7.2","0.01","0.01"
"00:59:58","57.6","56.7","96.5","30.11","342","1.7","7.2","0.01","0.01"
"01:04:58","57.6","56.8","97","30.11","355","0.3","2.4","0.01","0.01"
"01:09:56","57.6","56.8","97","30.11","3","1.2","6","0.01","0.01"
"01:14:57","57.6","56.8","97","30.11","355","0.4","3.6","0.02","0.01"
"01:19:57","57.5","56.7","97","30.10","354","0.8","4.8","0.02","0.01"
"01:24:57","57.5","56.7","97","30.10","355","0.6","4.6","0.02","0.01"
"01:29:57","57.5","56.7","97","30.10","355","0.1","2.4","0.02","0.01"
"01:34:57","57.5","56.7","97","30.10","352","1.3","4.8","0.03","0.02"
"01:39:57","57.5","56.7","97","30.10","348","0.5","4.6","0.03","0.02"
"01:44:57","57.5","56.7","97","30.10","348","0.2","2.4","0.03","0.02"
"01:49:58","57.5","56.7","97","30.10","344","0.5","4.8","0.03","0.02"
"01:54:58","57.5","56.7","97","30.10","345","0.8","6","0.03","0.02"
"01:59:58","57.5","56.7","97","30.10","344","1.9","6","0.03","0.02"
"02:04:58","57.5","56.7","97","30.09","234","0.6","6","0.03","0.02"
"02:09:57","57.5","56.7","97","30.09","179","1","7.2","0.03","0.02"
"02:14:57","57.4","56.6","97","30.09","352","1.3","6.9","0.04","0.03"
"02:19:57","57.4","56.6","97","30.09","355","1.4","6","0.04","0.02"
"02:24:57","57.4","56.6","97","30.09","355","1.2","4.8","0.04","0.02"
"02:29:57","57.4","56.6","97","30.09","353","1.4","6","0.05","0.03"
"02:34:57","57.4","56.6","97","30.09","355","0.8","4.8","0.05","0.03"
"02:39:58","57.4","56.6","97","30.09","345","1.6","4.8","0.05","0.02"
"02:44:58","57.4","56.6","97","30.09","337","1.1","6","0.05","0.02"
"02:49:58","57.4","56.6","97","30.09","338","0.7","3.6","0.05","0.02"
"02:54:58","57.4","56.6","97","30.09","337","0.7","3.6","0.05","0.02"
"02:59:59","57.4","56.6","97","30.09","339","1.1","6","0.05","0.02"
"03:04:57","57.4","56.6","97","30.09","339","0.8","4.8","0.06","0.02"
"03:09:59","57.4","56.6","97","30.09","342","1.1","3.6","0.06","0.03"
"03:14:56","57.3","56.5","97","30.09","344","0.9","3.6","0.06","0.03"
"03:19:56","57.3","56.5","97","30.08","353","1.6","4.8","0.06","0.02"
"03:24:56","57.4","56.6","97","30.08","352","1.4","6","0.06","0.02"
"03:29:56","57.3","56.5","97","30.08","350","1.7","4.8","0.06","0.02"
"03:34:56","57.4","56.6","97","30.08","355","0.9","3.6","0.06","0.01"
"03:39:59","57.4","56.6","97","30.08","352","1","3.6","0.06","0.01"
"03:44:56","57.4","56.6","97","30.08","353","1.5","4.8","0.06","0.01"
"03:49:58","57.4","56.6","97","30.08","351","0.7","4.6","0.06","0.01"
"03:54:58","57.5","56.7","97","30.08","350","0.9","4.8","0.07","0.02"
"03:59:56","57.5","56.7","97","30.08","350","1.2","4.8","0.07","0.02"
"04:04:58","57.5","56.7","97","30.08","350","1.4","3.6","0.07","0.02"
"04:09:56","57.5","56.7","97","30.08","350","0.7","3.5","0.07","0.01"
"04:14:56","57.5","56.7","97","30.09","350","0.8","3.6","0.07","0.01"
"04:19:56","57.6","56.8","97","30.09","350","0.8","3.6","0.07","0.01"
"04:24:56","57.6","56.8","97","30.09","350","0.8","3.6","0.07","0.01"
"04:29:56","57.7","56.9","97","30.09","350","0.5","2.4","0.07","0.01"
"04:34:56","57.7","56.9","97","30.09","350","0.4","3.6","0.07","0.01"
"04:39:57","57.7","56.9","97","30.09","350","0.9","3.6","0.07","0.01"
"04:44:58","57.7","56.9","97.1","30.09","350","0.6","3.6","0.07","0.01"
"04:49:58","57.7","56.9","97","30.08","350","1.3","3.6","0.07","0.01"
"04:54:58","57.7","56.9","97","30.08","350","1.4","6","0.07","0.01"
"04:59:58","57.7","56.9","97.2","30.08","351","1.2","6","0.07","0.00"
"05:04:58","57.7","56.9","97.2","30.08","349","1.3","6","0.07","0.00"
"05:09:57","57.7","57","97.6","30.08","344","0.7","3.6","0.07","0.00"
"05:14:58","57.7","57.1","98","30.08","338","1.3","4.8","0.07","0.00"
"05:19:58","57.7","57.1","98","30.08","337","0.7","4.8","0.07","0.00"
"05:24:58","57.8","57.2","98","30.08","337","1.3","4.8","0.07","0.00"
"05:29:58","57.8","57.2","98","30.08","341","1.4","6","0.07","0.00"
"05:34:58","57.8","57.2","98","30.08","339","1","6","0.08","0.01"
"05:39:59","57.8","57.2","98","30.08","343","1.4","6","0.08","0.01"
"05:44:59","57.8","57.2","98","30.09","343","0.7","5.8","0.08","0.01"
"05:49:56","57.8","57.2","98","30.09","346","1.7","4.8","0.08","0.01"
"05:54:57","57.8","57.2","98","30.09","344","1.6","4.8","0.08","0.01"
"05:59:57","57.8","57.2","98","30.09","13","1.4","8.4","0.08","0.01"
"06:04:57","57.7","57.1","98","30.09","5","1.3","8.1","0.08","0.01"
"06:09:57","57.7","57.1","98","30.09","355","1","6","0.08","0.01"
"06:14:58","57.6","56.9","97.3","30.10","355","1.9","6","0.08","0.01"
"06:19:59","57.5","56.7","97","30.10","340","2.6","6","0.09","0.02"
"06:24:58","57.5","56.7","97","30.10","351","2.2","5.8","0.09","0.02"
"06:29:58","57.5","56.7","97","30.10","347","2.2","7.2","0.09","0.02"
"06:34:57","57.4","56.6","97","30.10","348","2","6.9","0.09","0.02"
"06:39:58","57.4","56.6","97","30.10","351","0.7","3.6","0.09","0.01"
"06:44:57","57.4","56.6","97","30.10","349","1.8","3.6","0.09","0.01"
"06:49:57","57.4","56.6","97","30.10","316","1.2","3.6","0.09","0.01"
"06:54:57","57.4","56.6","97","30.10","339","1.3","6","0.09","0.01"
"06:59:57","57.5","56.7","97","30.11","350","1.2","3.6","0.09","0.01"
"07:04:56","57.4","56.6","97","30.11","336","2.1","7.2","0.09","0.01"
"07:09:59","57.4","56.6","97","30.11","344","1.6","6","0.10","0.02"
"07:14:56","57.4","56.6","97","30.11","351","1.4","7.2","0.10","0.02"
"07:19:59","57.4","56.6","97","30.11","354","1.6","6.9","0.10","0.02"
"07:24:59","57.5","56.7","97","30.11","353","2.3","7.2","0.10","0.01"
"07:29:59","57.4","56.6","97","30.11","346","2.9","7.2","0.10","0.01"
"07:34:58","57.4","56.6","97","30.11","350","2.1","6.9","0.10","0.01"
"07:39:59","57.4","56.6","97","30.11","341","2.4","7.2","0.10","0.01"
"07:44:59","57.4","56.6","97","30.12","349","2.7","6","0.11","0.02"
"07:49:59","57.6","56.9","97.9","30.12","339","2.5","7.2","0.11","0.02"
"07:54:58","57.7","57.1","98","30.12","342","2.1","6","0.11","0.02"
"07:59:59","57.9","57.3","98","30.12","348","2.1","7.2","0.11","0.02"
"08:04:59","58.1","57.5","98","30.11","353","2.8","10.8","0.11","0.02"
"08:09:58","58.3","57.7","98","30.11","351","3.8","8.4","0.11","0.02"
"08:14:59","58.5","57.9","98","30.12","349","2.3","7.2","0.11","0.01"
"08:19:59","58.6","58","98","30.12","345","1.4","6","0.11","0.01"
"08:24:59","58.7","58.1","97.8","30.12","347","2","7.2","0.11","0.01"
"08:29:59","58.7","58","97.5","30.12","355","1.7","8.4","0.11","0.01"
"08:34:58","58.9","58.3","98","30.12","347","1","5.8","0.11","0.01"
"08:39:59","59","58.4","98","30.12","346","1.2","4.8","0.11","0.01"
"08:44:59","59.1","58.5","97.9","30.12","350","1.4","7.2","0.11","0.01"
"08:49:59","59.2","58.6","97.9","30.12","345","1.1","7.2","0.11","0.00"
"08:54:59","59.4","58.6","97.5","30.12","347","1.9","7.2","0.11","0.00"
"08:59:59","59.5","58.6","97","30.12","355","2.2","6.9","0.11","0.00"
"09:04:58","59.6","59","98","30.12","354","2.1","4.8","0.11","0.00"
"09:09:57","59.9","59.3","98","30.12","347","1.2","6","0.11","0.00"
"09:14:58","60.1","59.4","97.7","30.12","344","1.3","4.8","0.11","0.00"
"09:19:57","60.3","59.7","98","30.12","343","1.9","4.8","0.11","0.00"
"09:24:57","60.5","59.9","98","30.12","347","1.6","4.8","0.11","0.00"
"09:29:57","60.8","60.2","98","30.12","351","2.8","7.2","0.11","0.00"
"09:34:57","61.3","60.7","98","30.12","340","1.3","6","0.11","0.00"
"09:39:58","61.7","61.1","98","30.12","342","1.1","6","0.11","0.00"
"09:44:56","62","61.2","97.3","30.12","331","0.9","4.8","0.11","0.00"
"09:49:56","62.1","61.2","97","30.12","348","1.4","8.4","0.11","0.00"
"09:54:59","62","61.1","96.9","30.12","350","1.8","8.1","0.11","0.00"
"09:59:59","62","60.9","96.3","30.12","321","1","6.9","0.11","0.00"
"10:04:58","62.1","60.9","96","30.11","323","0.8","4.8","0.11","0.00"
"10:09:57","62.2","61","96","30.11","332","1.9","8.4","0.11","0.00"
"10:14:56","62.3","61.1","96","30.12","350","2.7","7.2","0.11","0.00"
"10:19:59","62.2","61","96","30.12","344","1.8","6.9","0.11","0.00"
"10:24:57","62.2","61","96","30.12","355","1","3.6","0.11","0.00"
"10:29:56","62.3","61.1","96","30.12","351","0.7","3.6","0.11","0.00"
"10:34:56","62.4","61.2","96","30.12","355","0.9","3.6","0.11","0.00"
"10:39:56","62.6","61.6","96.7","30.12","354","0.8","7.2","0.11","0.00"
"10:44:56","62.8","61.7","96.1","30.12","9","0.6","2.4","0.11","0.00"
"10:49:56","62.8","61.6","96","30.12","352","0.8","6","0.11","0.00"
"10:54:56","62.8","61.6","96","30.12","345","0.7","4.6","0.11","0.00"
"10:59:56","62.8","61.6","96","30.12","356","0","1.2","0.11","0.00"
"11:04:56","62.8","61.6","96","30.12","350","0.2","1.2","0.11","0.00"
"11:09:59","63.1","62.2","96.9","30.12","9","0.4","3.6","0.11","0.00"
"11:14:59","63.4","62.5","97","30.12","34","0.4","2.4","0.11","0.00"
"11:19:59","63.4","62.3","96.1","30.12","27","0.6","3.6","0.11","0.00"
"11:24:59","63.4","62.2","96","30.12","27","0.3","2.4","0.11","0.00"
"11:29:59","63.7","62.5","96","30.12","30","0","2.3","0.11","0.00"
"11:34:59","63.8","62.6","96","30.12","36","0.2","3.6","0.11","0.00"
"11:39:56","64.2","63","96","30.12","348","0.5","3.6","0.11","0.00"
"11:44:59","64.2","63","95.8","30.12","330","0.7","7.2","0.11","0.00"
"11:49:56","64.1","62.6","95","30.11","345","0.7","4.8","0.11","0.00"
"11:54:59","63.8","62.2","94.5","30.11","356","0.2","3.6","0.11","0.00"
"11:59:56","63.7","62.2","95","30.11","16","0.4","4.8","0.11","0.00"
"12:04:56","63.8","62.3","95","30.11","11","0","1.2","0.11","0.00"
"12:09:59","63.8","62.6","95.8","30.11","12","0","0","0.11","0.00"
"12:14:59","63.9","62.5","95.2","30.11","325","0.2","6","0.11","0.00"
"12:19:59","63.9","62.4","95","30.11","327","0.7","5.8","0.11","0.00"
"12:24:59","63.9","62.4","95","30.11","348","0.9","8.4","0.11","0.00"
"12:29:58","63.8","62.3","95.2","30.11","5","0.4","5.8","0.11","0.00"
"12:34:58","63.8","62.5","95.8","30.11","74","0.1","2.3","0.11","0.00"
"12:39:58","63.8","62.5","95.7","30.11","6","1.1","6","0.11","0.00"
"12:44:58","63.9","62.7","95.9","30.11","30","0.5","2.4","0.11","0.00"
"12:49:58","64","62.7","95.7","30.11","338","0.3","3.6","0.11","0.00"
"12:54:57","63.8","62.3","95","30.11","345","0.4","3.6","0.11","0.00"
"12:59:57","63.8","62.4","95.5","30.11","359","0.7","4.8","0.11","0.00"
"13:04:56","63.8","62.5","95.6","30.10","63","0.4","3.6","0.11","0.00"
"13:09:59","64","62.5","95.2","30.10","62","0.3","2.4","0.11","0.00"
"13:14:55","64.2","62.7","94.9","30.10","135","1","6","0.11","0.00"
"13:19:59","64.2","62.4","94","30.10","116","0.8","3.6","0.11","0.00"
"13:24:58","64.2","62.4","94","30.10","60","0.7","3.6","0.11","0.00"
"13:29:58","64.3","62.3","93.4","30.10","31","0.6","3.6","0.11","0.00"
"13:34:57","64.2","62.2","93.2","30.10","39","0.2","2.4","0.11","0.00"
"13:39:58","64.2","62.2","93.5","30.10","323","0.2","4.8","0.11","0.00"
"13:44:58","64.2","62.4","94","30.10","321","0.1","2.3","0.11","0.00"
"13:49:57","64.3","62.5","94","30.09","30","0.1","2.4","0.11","0.00"
"13:54:58","64.6","62.8","94","30.09","30","0.4","2.4","0.11","0.00"
"13:59:59","64.9","62.9","93.4","30.09","24","0.8","3.6","0.11","0.00"
"14:04:59","65.1","62.9","92.7","30.09","65","0.6","2.4","0.11","0.00"
"14:09:58","65","62.6","92","30.09","53","0.4","4.8","0.11","0.00"
"14:14:58","65","62.6","92","30.09","36","0.3","2.4","0.11","0.00"
"14:19:58","64.9","62.5","92","30.09","55","0.4","2.4","0.11","0.00"
"14:24:57","64.8","62.4","92","30.09","72","0.6","4.8","0.11","0.00"
"14:29:56","64.8","62.4","92","30.09","105","0.5","2.4","0.11","0.00"
"14:34:56","64.8","62.4","92","30.08","116","0.1","2.3","0.11","0.00"
"14:39:56","64.9","62.5","92","30.08","84","0.3","2.4","0.11","0.00"
"14:44:56","64.9","62.5","92","30.08","80","0.2","2.4","0.11","0.00"
"14:49:56","65","62.6","92","30.08","80","0.4","3.6","0.11","0.00"
"14:54:59","65.1","62.7","92","30.08","75","0.3","2.4","0.11","0.00"
"14:59:59","65.2","62.7","91.7","30.08","41","0.5","3.6","0.11","0.00"
"15:04:58","65","62.5","91.4","30.07","24","0.6","4.8","0.11","0.00"
"15:09:57","65.1","62.7","92","30.07","280","0.4","4.6","0.11","0.00"
"15:14:58","65.1","62.5","91.3","30.07","314","0.4","2.4","0.11","0.00"
"15:19:57","65","62.4","91.5","30.07","22","0.2","2.4","0.11","0.00"
"15:24:56","64.9","62.5","92","30.07","46","0.1","1.2","0.11","0.00"
"15:29:56","64.9","62.5","92","30.07","90","0.2","2.4","0.11","0.00"
"15:34:59","65","62.6","92","30.07","60","0.5","2.4","0.11","0.00"
"15:39:56","65","62.6","92","30.07","29","0.4","2.4","0.11","0.00"
"15:44:56","64.9","62.5","92","30.07","74","0.9","3.6","0.11","0.00"
"15:49:59","64.9","62.5","92","30.07","102","1.1","3.6","0.11","0.00"
"15:54:59","64.9","62.5","92","30.07","82","0","1.2","0.11","0.00"
"15:59:59","65.1","62.8","92.3","30.07","23","0.3","3.6","0.11","0.00"
"16:04:59","65.1","62.8","92.3","30.06","297","0.2","2.4","0.11","0.00"
"16:09:57","65","62.6","92.1","30.06","125","0.5","2.4","0.11","0.00"
"16:14:58","64.9","62.5","92","30.07","114","0.2","2.4","0.11","0.00"
"16:19:57","64.7","62.3","92","30.07","80","0.5","3.6","0.11","0.00"
"16:24:56","64.7","62.6","92.9","30.07","20","0.1","2.4","0.11","0.00"
"16:29:59","64.7","62.3","92.2","30.07","68","0.6","2.4","0.11","0.00"
"16:34:57","64.6","62.2","92","30.07","125","0.9","2.4","0.11","0.00"
"16:39:56","64.6","62.5","93","30.07","123","0.2","2.4","0.11","0.00"
"16:44:57","64.7","62.6","93","30.07","66","0.1","3.6","0.11","0.00"
"16:49:56","64.7","62.6","92.9","30.06","16","0.5","3.5","0.11","0.00"
"16:54:56","64.8","62.5","92.5","30.06","22","0.7","2.4","0.11","0.00"
"16:59:59","64.7","62.6","92.9","30.06","7","0.1","1.2","0.11","0.00"
"17:04:59","64.7","62.6","93","30.05","63","0.2","2.4","0.11","0.00"
"17:09:58","64.6","62.5","93","30.05","71","0.1","2.3","0.11","0.00"
"17:14:58","64.6","62.5","93","30.05","113","0.5","3.6","0.11","0.00"
"17:19:58","64.7","62.6","93","30.05","117","0","1.2","0.11","0.00"
"17:24:57","64.7","62.6","93","30.05","117","0.3","1.2","0.11","0.00"
"17:29:56","64.7","62.6","93","30.05","118","1.1","4.8","0.11","0.00"
"17:34:59","64.7","62.6","93","30.04","118","0.4","2.3","0.11","0.00"
"17:39:58","64.8","62.7","93","30.04","108","0.1","1.2","0.11","0.00"
"17:44:57","64.8","62.7","93","30.04","106","0.2","2.4","0.11","0.00"
"17:49:56","64.8","62.7","93","30.04","105","0","1.2","0.11","0.00"
"17:54:59","64.9","62.8","93","30.04","15","0.1","2.4","0.11","0.00"
"17:59:58","64.9","62.8","93","30.04","30","0.1","2.3","0.11","0.00"
"18:04:57","64.9","62.8","93","30.04","97","0","1.2","0.11","0.00"
"18:09:56","64.9","62.8","93","30.04","96","0.1","1.2","0.11","0.00"
"18:14:57","64.9","62.8","93","30.04","55","0.3","3.6","0.11","0.00"
"18:19:57","64.8","62.7","93","30.04","9","0.1","1.2","0.11","0.00"
"18:24:56","64.8","62.9","93.8","30.04","240","0","1.2","0.11","0.00"
"18:29:59","64.7","62.9","94","30.04","184","0.1","2.4","0.11","0.00"
"18:34:58","64.7","62.9","94","30.04","177","0","1.2","0.11","0.00"
"18:39:58","64.7","62.9","94","30.04","192","0.4","4.8","0.11","0.00"
"18:44:58","64.7","62.9","94","30.04","5","0","1.2","0.11","0.00"
"18:49:57","64.6","62.9","94.2","30.04","5","0.1","1.2","0.11","0.00"
"18:54:59","64.5","63","95","30.04","334","0.1","1.2","0.11","0.00"
"18:59:59","64.4","62.9","95","30.04","63","0","0","0.11","0.00"
"19:04:58","64.3","62.8","95","30.04","63","0","0","0.11","0.00"
"19:09:57","64.3","63.1","95.9","30.04","62","0","1.2","0.11","0.00"
"19:14:59","64.3","63.1","96","30.04","62","0","1.2","0.11","0.00"
"19:19:58","64.3","63.1","96","30.03","62","0.1","2.4","0.11","0.00"
"19:24:56","64.3","63.1","96","30.03","53","0.3","3.6","0.11","0.00"
"19:29:59","64.3","63.1","96","30.03","50","0.1","1.2","0.11","0.00"
"19:34:56","64.3","63.1","96","30.03","3","0.3","3.6","0.11","0.00"
"19:39:57","64.2","63","96","30.03","348","0","1.2","0.11","0.00"
"19:44:56","64.2","63","96","30.03","347","0","1.2","0.11","0.00"
"19:49:59","64.1","62.9","96","30.03","17","0.1","1.2","0.11","0.00"
"19:54:58","64.1","62.9","96","30.03","57","0.1","2.4","0.11","0.00"
"19:59:57","64.1","63.2","97","30.03","58","0.1","1.2","0.12","0.00"
"20:04:56","64.1","63.2","97","30.03","59","0.1","1.2","0.12","0.01"
"20:09:59","64.1","63.2","97","30.03","58","0.1","1.2","0.12","0.01"
"20:14:59","64.1","63.2","97","30.03","58","0.2","2.4","0.12","0.01"
"20:19:56","64.1","63.2","97","30.03","58","0","1.2","0.12","0.01"
"20:24:59","64.1","63.2","97","30.03","58","0","0","0.12","0.01"
"20:29:59","64.1","63.2","97","30.03","58","0","1.2","0.12","0.01"
"20:34:58","64.1","63.2","97","30.02","58","0.2","1.2","0.12","0.01"
"20:39:56","64.1","63.2","97","30.02","58","0","0","0.12","0.01"
"20:44:59","64.1","63.2","97","30.02","58","0.1","1.2","0.12","0.01"
"20:49:56","64.1","63.2","97","30.02","54","0.3","2.4","0.12","0.01"
"20:54:59","64.1","63.2","97","30.02","40","0.3","3.6","0.12","0.01"
"20:59:59","64.1","63.2","97","30.02","38","0","1.2","0.12","0.01"
"21:04:59","64.1","63.2","97","30.02","38","0.1","1.2","0.13","0.00"
"21:09:57","64.1","63.2","97","30.02","42","0.1","2.4","0.13","0.01"
"21:14:57","64.1","63.2","97","30.02","43","0.2","2.3","0.13","0.01"
"21:19:56","64.1","63.2","97","30.01","42","0.1","1.2","0.13","0.01"
"21:24:56","64","63.1","97","30.01","59","0.3","2.4","0.13","0.01"
"21:29:55","64","63.1","97","30.02","6","0.6","3.6","0.13","0.01"
"21:34:58","64","63.1","97","30.02","34","0.5","3.6","0.13","0.01"
"21:39:59","64","63.1","97","30.02","18","0.7","2.4","0.13","0.01"
"21:44:58","64.1","63.2","97","30.02","41","1","2.4","0.13","0.01"
"21:49:57","64.1","63.2","97","30.02","42","0.2","2.4","0.13","0.01"
"21:54:56","64.1","63.2","97","30.02","54","0.3","2.4","0.13","0.01"
"21:59:59","64.1","63.2","97","30.02","75","0.9","2.4","0.13","0.01"
"22:04:59","64.1","63.2","97","30.02","74","0.4","2.3","0.13","0.01"
"22:09:58","64","63.1","97","30.02","121","1.3","4.8","0.13","0.00"
"22:14:57","64","63.1","97","30.02","133","0.4","2.4","0.13","0.00"
"22:19:58","64","63.1","97","30.02","105","1.6","4.8","0.14","0.01"
"22:24:56","64","63.1","97","30.02","15","0.7","2.4","0.14","0.01"
"22:29:56","64","63.1","97","30.02","113","0.5","2.4","0.14","0.01"
"22:34:58","64","63.1","97","30.02","109","1.4","3.6","0.14","0.01"
"22:39:57","64","63.1","97","30.02","98","0.1","1.2","0.15","0.02"
"22:44:57","64","63.1","97","30.02","98","0.7","2.4","0.15","0.02"
"22:49:59","63.9","63","97","30.02","99","0.5","2.4","0.15","0.02"
"22:54:56","63.9","63","97","30.02","105","0.5","2.4","0.15","0.02"
"22:59:57","63.8","62.9","97","30.02","122","0.6","3.6","0.16","0.02"
"23:04:56","63.8","62.9","97","30.02","126","0.5","2.4","0.16","0.03"
"23:09:59","63.8","62.9","97","30.02","126","0.7","4.8","0.16","0.03"
"23:14:59","63.8","62.9","97","30.02","126","0.4","2.4","0.16","0.03"
"23:19:58","63.8","62.9","97","30.02","126","0","1.2","0.16","0.03"
"23:24:57","63.8","62.9","97","30.02","104","0.6","3.6","0.16","0.02"
"23:29:57","63.8","62.9","97","30.02","55","0.1","2.3","0.16","0.02"
"23:34:56","63.8","62.9","97","30.01","55","0","0","0.16","0.02"
"23:39:56","63.8","62.9","97","30.01","57","0","0","0.16","0.02"
"23:44:56","63.8","62.9","97","30.01","56","0.3","2.4","0.16","0.01"
"23:49:59","63.8","62.9","97","30.01","121","0.4","3.6","0.16","0.01"
"23:54:58","63.8","62.9","97","30.01","109","0.2","3.6","0.16","0.01"
